SL-16 DEB, 18527

Orbit data source: Space-Track

SL-16 DEB, 18527 is space debris in LEO originally from a launch on Wed, 18 Mar 1987 UTC launched from the Tyuratam Missile And Space Complex (TTMTR). Debris objects in space refer to the collection of defunct objects orbiting the Earth. Examples of debris include non-operational satellites, rocket bodies, and fragments generated from explosions, collisions, or faulty payload assembly.

Loading next visibility...
Identifier
18527, 1987-027E
Orbit
LEO
Last TLE update
12 hours ago
Origin
Manufacturer
Yuzhnoe
Mission
Spacecraft
Bus & Motor
SEP MOTOR COVER, Unknown motor
Mass
~0 kg wet, ~1 kg dry
Launch date (UTC)
1987-03-18 (38 years ago)
Launch vehicle
Unknown
Launch site
Tyuratam Missile And Space Complex (TTMTR)
Object type
Payload
Rocket body
Debris
Shape & HBR
Unknown
Radar Cross Section
Small (<0.1 m²)

Expand to show TLE details & history

TLE from 12 hours ago
0 SL-16 DEB
1 18527U 87027E   25181.90898330 -.00000004  00000-0  34575-4 0  9997
2 18527  70.9968 255.0258 0193263  48.9568 312.8056 13.75701193920884
Epoch: 2025-06-30T21:48Z
TLE epoch observation values (Epoch: 2025-06-30T21:48:56.157Z)
Latitude
-0.00002°
Longitude
8.57977°
Altitude
886.404 km
Speed
7.457 km/s
True Right ascension
17h 00m 06s
True Declination
0° 00' 00"
Sunlit
Object was in full shadow at epoch
Visualization orbit readout
Latitude
-37.57484°
Longitude
-7.68971°
Altitude
985.534 km
Speed
7.362 km/s
Apparent Right ascension
13h 04m 23s
Apparent Declination
-49° 56' 12"
Sunlit
Object is in full shadow
Visualization observer readout
Local Sidereal Time
21:28:44
Azimuth
236.541° WSW
Elevation
-51.43°
Doppler factor
1
Orbital elements
Apogee altitude
1,119.287 km
Perigee altitude
834.986 km
Semi-major axis
7,355.274 km
Eccentricity
0.01933
Inclination
70.9968°
RAAN
255.0258°
Arg. of periapsis
48.9568°
True anomaly
Unknown
Mean anomaly
312.8056°
Eccentric anomaly
Unknown
Mean motion
3.44069 °/min
Orbital period
104.63 mins
BSTAR
0.000034575
Loading maneuver chart data...
Loading SW <> Apogee altitude chart data...
Loading historical data...
Loading historical data...
Loading historical data...
Loading historical data...
Loading historical data...
Loading historical data...
Loading historical data...

SL-16 DEB Visibility forecast

Observer location: undefined°, undefined°

Span
Click to sort rows by Start time (UTC) header in descending order
Start Az.
Max El. time (UTC)
Max El. Az.
Max El.
End time (UTC)
End Az.
4 mins2025-07-01 14:04:23.425Z26.378° NE2025-07-01 14:06:23.425Z46.709° ENE12.581°2025-07-01 14:08:23.425Z66.614° ENE
10 mins2025-07-01 15:50:23.425Z344.386° N2025-07-01 15:54:23.425Z61.064° ENE43.678°2025-07-01 16:00:23.425Z150.075° SSE
6 mins2025-07-01 17:38:23.425Z288.169° WNW2025-07-01 17:41:23.425Z255.62° W16.211°2025-07-01 17:44:23.425Z226.673° WSW
8 mins2025-07-02 05:21:23.425Z156.81° SSE2025-07-02 05:24:23.425Z111.73° ESE28.787°2025-07-02 05:29:23.425Z42.989° NE
8 mins2025-07-02 07:08:23.425Z250.975° W2025-07-02 07:11:23.425Z295.818° NW27.495°2025-07-02 07:16:23.425Z3.389° NNE
|